Time,TemperatureF,DewpointF,PressureIn,WindDirection,WindDirectionDegrees,WindSpeedMPH,WindSpeedGustMPH,Humidity,HourlyPrecipIn,Conditions,Clouds,dailyrainin,SolarRadiationWatts/m^2,SoftwareType,DateUTC
2013-01-01 00:04:00,39.9,21.8,30.25,NW,321,2.0,4.0,48,0.00,,CLR,0.00,0.00,VWS V14.01,2013-01-01 08:04:00,
2013-01-01 00:09:00,39.8,23.6,30.25,NW,307,0.0,3.0,52,0.00,,CLR,0.00,0.00,VWS V14.01,2013-01-01 08:09:00,
2013-01-01 00:14:00,39.6,22.0,30.25,NW,307,2.0,2.0,49,0.00,,CLR,0.00,0.00,VWS V14.01,2013-01-01 08:14:00,
2013-01-01 00:19:00,39.5,21.5,30.24,WSW,237,1.0,4.0,48,0.00,,CLR,0.00,0.00,VWS V14.01,2013-01-01 08:19:00,
2013-01-01 00:24:00,39.5,21.5,30.24,WSW,238,1.0,3.0,48,0.00,,CLR,0.00,0.00,VWS V14.01,2013-01-01 08:24:00,
2013-01-01 00:29:00,39.5,21.0,30.24,WSW,239,1.0,2.0,47,0.00,,CLR,0.00,0.00,VWS V14.01,2013-01-01 08:29:00,
2013-01-01 00:34:00,39.5,21.5,30.24,WSW,239,1.0,2.0,48,0.00,,CLR,0.00,0.00,VWS V14.01,2013-01-01 08:34:00,
2013-01-01 00:40:00,39.5,21.0,30.24,WSW,239,2.0,2.0,47,0.00,,CLR,0.00,0.00,VWS V14.01,2013-01-01 08:40:00,
2013-01-01 00:45:00,39.5,21.0,30.24,WSW,240,1.0,2.0,47,0.00,,CLR,0.00,0.00,VWS V14.01,2013-01-01 08:45:00,
2013-01-01 00:50:00,39.3,20.8,30.25,NW,317,2.0,3.0,47,0.00,,CLR,0.00,0.00,VWS V14.01,2013-01-01 08:50:00,
2013-01-01 00:55:00,39.3,20.8,30.25,NNW,329,2.0,2.0,47,0.00,,CLR,0.00,0.00,VWS V14.01,2013-01-01 08:55:00,
2013-01-01 01:00:00,39.3,20.8,30.25,WNW,303,2.0,3.0,47,0.00,,CLR,0.00,0.00,VWS V14.01,2013-01-01 09:00:00,
2013-01-01 01:05:00,39.2,20.7,30.25,WNW,302,1.0,2.0,47,0.00,,CLR,0.00,0.00,VWS V14.01,2013-01-01 09:05:00,
2013-01-01 01:10:00,39.2,20.7,30.25,WNW,302,1.0,1.0,47,0.00,,CLR,0.00,0.00,VWS V14.01,2013-01-01 09:10:00,
2013-01-01 01:15:00,39.3,20.8,30.25,WNW,302,0.0,1.0,47,0.00,,CLR,0.00,0.00,VWS V14.01,2013-01-01 09:15:00,
2013-01-01 01:20:00,39.3,21.3,30.25,WNW,302,0.0,0.0,48,0.00,,CLR,0.00,0.00,VWS V14.01,2013-01-01 09:20:00,
2013-01-01 01:25:00,39.3,21.3,30.25,WNW,302,1.0,2.0,48,0.00,,CLR,0.00,0.00,VWS V14.01,2013-01-01 09:25:00,
2013-01-01 01:30:00,39.3,21.8,30.25,WNW,302,1.0,2.0,49,0.00,,CLR,0.00,0.00,VWS V14.01,2013-01-01 09:30:00,
2013-01-01 01:35:00,39.2,21.2,30.25,WNW,302,1.0,1.0,48,0.00,,CLR,0.00,0.00,VWS V14.01,2013-01-01 09:35:00,
2013-01-01 01:40:00,39.2,21.2,30.25,WNW,302,0.0,0.0,48,0.00,,CLR,0.00,0.00,VWS V14.01,2013-01-01 09:40:00,
2013-01-01 01:45:00,39.2,21.2,30.25,WNW,302,0.0,0.0,48,0.00,,CLR,0.00,0.00,VWS V14.01,2013-01-01 09:45:00,
2013-01-01 01:50:00,39.1,21.1,30.25,WNW,302,1.0,2.0,48,0.00,,CLR,0.00,0.00,VWS V14.01,2013-01-01 09:50:00,
2013-01-01 01:55:00,39.1,20.6,30.25,WNW,302,3.0,3.0,47,0.00,,CLR,0.00,0.00,VWS V14.01,2013-01-01 09:55:00,
2013-01-01 02:00:00,39.2,20.7,30.25,WNW,302,1.0,2.0,47,0.00,,CLR,0.00,0.00,VWS V14.01,2013-01-01 10:00:00,
2013-01-01 02:05:00,39.2,20.7,30.25,WNW,302,1.0,2.0,47,0.00,,CLR,0.00,0.00,VWS V14.01,2013-01-01 10:05:00,
2013-01-01 02:10:00,39.2,20.7,30.25,WNW,302,1.0,2.0,47,0.00,,CLR,0.00,0.00,VWS V14.01,2013-01-01 10:10:00,
2013-01-01 02:15:00,39.2,21.2,30.25,WNW,302,1.0,2.0,48,0.00,,CLR,0.00,0.00,VWS V14.01,2013-01-01 10:15:00,
2013-01-01 02:20:00,39.2,21.2,30.25,WNW,302,2.0,3.0,48,0.00,,CLR,0.00,0.00,VWS V14.01,2013-01-01 10:20:00,
2013-01-01 02:25:00,39.2,21.2,30.25,NW,304,2.0,2.0,48,0.00,,CLR,0.00,0.00,VWS V14.01,2013-01-01 10:25:00,
2013-01-01 02:30:00,39.2,20.7,30.25,NW,305,0.0,1.0,47,0.00,,CLR,0.00,0.00,VWS V14.01,2013-01-01 10:30:00,
2013-01-01 02:35:00,39.2,21.2,30.25,NW,305,1.0,1.0,48,0.00,,CLR,0.00,0.00,VWS V14.01,2013-01-01 10:35:00,
2013-01-01 02:41:00,38.9,20.9,30.25,NW,305,1.0,1.0,48,0.00,,CLR,0.00,0.00,VWS V14.01,2013-01-01 10:41:00,
2013-01-01 02:46:00,38.8,20.8,30.25,NW,304,0.0,2.0,48,0.00,,CLR,0.00,0.00,VWS V14.01,2013-01-01 10:46:00,
2013-01-01 02:51:00,38.5,21.0,30.25,NW,304,1.0,1.0,49,0.00,,CLR,0.00,0.00,VWS V14.01,2013-01-01 10:51:00,
2013-01-01 02:56:00,38.3,20.8,30.25,NW,304,1.0,1.0,49,0.00,,CLR,0.00,0.00,VWS V14.01,2013-01-01 10:56:00,
2013-01-01 03:01:00,38.2,21.2,30.25,NW,305,1.0,2.0,50,0.00,,CLR,0.00,0.00,VWS V14.01,2013-01-01 11:01:00,
2013-01-01 03:06:00,38.0,22.0,30.25,West,278,2.0,3.0,52,0.00,,CLR,0.00,0.00,VWS V14.01,2013-01-01 11:06:00,
2013-01-01 03:11:00,37.9,21.9,30.25,NW,304,3.0,3.0,52,0.00,,CLR,0.00,0.00,VWS V14.01,2013-01-01 11:11:00,
2013-01-01 03:16:00,37.8,21.3,30.25,WNW,300,3.0,3.0,51,0.00,,CLR,0.00,0.00,VWS V14.01,2013-01-01 11:16:00,
2013-01-01 03:21:00,37.8,21.8,30.25,West,271,2.0,3.0,52,0.00,,CLR,0.00,0.00,VWS V14.01,2013-01-01 11:21:00,
2013-01-01 03:26:00,37.6,21.6,30.25,West,270,1.0,2.0,52,0.00,,CLR,0.00,0.00,VWS V14.01,2013-01-01 11:26:00,
2013-01-01 03:31:00,37.6,21.6,30.25,West,270,1.0,2.0,52,0.00,,CLR,0.00,0.00,VWS V14.01,2013-01-01 11:31:00,
2013-01-01 03:36:00,37.5,21.5,30.24,West,269,2.0,2.0,52,0.00,,CLR,0.00,0.00,VWS V14.01,2013-01-01 11:36:00,
2013-01-01 03:41:00,37.5,21.9,30.24,West,265,0.0,3.0,53,0.00,,CLR,0.00,0.00,VWS V14.01,2013-01-01 11:41:00,
2013-01-01 03:47:00,37.5,21.5,30.24,West,265,2.0,3.0,52,0.00,,CLR,0.00,0.00,VWS V14.01,2013-01-01 11:47:00,
2013-01-01 03:52:00,37.5,21.5,30.24,West,261,1.0,3.0,52,0.00,,CLR,0.00,0.00,VWS V14.01,2013-01-01 11:52:00,
2013-01-01 03:57:00,37.5,21.5,30.24,West,259,1.0,3.0,52,0.00,,CLR,0.00,0.00,VWS V14.01,2013-01-01 11:57:00,
2013-01-01 04:02:00,37.3,21.3,30.23,West,259,1.0,2.0,52,0.00,,CLR,0.00,0.00,VWS V14.01,2013-01-01 12:02:00,
2013-01-01 04:07:00,37.3,21.3,30.23,West,259,2.0,2.0,52,0.00,,CLR,0.00,0.00,VWS V14.01,2013-01-01 12:07:00,
2013-01-01 04:12:00,37.2,21.2,30.23,West,260,2.0,2.0,52,0.00,,CLR,0.00,0.00,VWS V14.01,2013-01-01 12:12:00,
2013-01-01 04:17:00,37.2,21.2,30.23,West,271,1.0,3.0,52,0.00,,CLR,0.00,0.00,VWS V14.01,2013-01-01 12:17:00,
2013-01-01 04:22:00,37.0,21.0,30.23,WNW,288,2.0,3.0,52,0.00,,CLR,0.00,0.00,VWS V14.01,2013-01-01 12:22:00,
2013-01-01 04:27:00,37.0,21.0,30.23,WNW,290,2.0,2.0,52,0.00,,CLR,0.00,0.00,VWS V14.01,2013-01-01 12:27:00,
2013-01-01 04:32:00,36.9,21.4,30.23,WNW,288,0.0,2.0,53,0.00,,CLR,0.00,0.00,VWS V14.01,2013-01-01 12:32:00,
2013-01-01 04:37:00,36.8,21.3,30.23,WNW,288,1.0,2.0,53,0.00,,CLR,0.00,0.00,VWS V14.01,2013-01-01 12:37:00,
2013-01-01 04:43:00,36.8,21.7,30.23,WNW,288,1.0,2.0,54,0.00,,CLR,0.00,0.00,VWS V14.01,2013-01-01 12:43:00,
2013-01-01 04:48:00,36.6,21.5,30.23,WNW,288,3.0,3.0,54,0.00,,CLR,0.00,0.00,VWS V14.01,2013-01-01 12:48:00,
2013-01-01 04:53:00,36.6,22.0,30.23,WNW,288,2.0,3.0,55,0.00,,CLR,0.00,0.00,VWS V14.01,2013-01-01 12:53:00,
2013-01-01 04:58:00,36.8,22.2,30.23,WNW,288,2.0,3.0,55,0.00,,CLR,0.00,0.00,VWS V14.01,2013-01-01 12:58:00,
2013-01-01 05:03:00,36.8,22.2,30.23,WNW,288,2.0,3.0,55,0.00,,CLR,0.00,0.00,VWS V14.01,2013-01-01 13:03:00,
2013-01-01 05:08:00,36.8,22.2,30.23,WNW,288,2.0,2.0,55,0.00,,CLR,0.00,0.00,VWS V14.01,2013-01-01 13:08:00,
2013-01-01 05:13:00,36.9,22.3,30.23,WNW,288,1.0,2.0,55,0.00,,CLR,0.00,0.00,VWS V14.01,2013-01-01 13:13:00,
2013-01-01 05:18:00,37.0,22.4,30.23,WNW,286,1.0,2.0,55,0.00,,CLR,0.00,0.00,VWS V14.01,2013-01-01 13:18:00,
2013-01-01 05:23:00,37.0,21.9,30.23,WNW,291,1.0,2.0,54,0.00,,CLR,0.00,0.00,VWS V14.01,2013-01-01 13:23:00,
2013-01-01 05:28:00,37.2,22.1,30.23,WNW,297,1.0,2.0,54,0.00,,CLR,0.00,0.00,VWS V14.01,2013-01-01 13:28:00,
2013-01-01 05:33:00,37.2,22.1,30.23,WNW,294,2.0,2.0,54,0.00,,CLR,0.00,0.00,VWS V14.01,2013-01-01 13:33:00,
2013-01-01 05:38:00,37.2,22.5,30.23,West,281,2.0,3.0,55,0.00,,CLR,0.00,0.00,VWS V14.01,2013-01-01 13:38:00,
2013-01-01 05:43:00,37.3,22.6,30.23,West,280,1.0,2.0,55,0.00,,CLR,0.00,0.00,VWS V14.01,2013-01-01 13:43:00,
2013-01-01 05:48:00,37.3,22.6,30.23,West,279,1.0,2.0,55,0.00,,CLR,0.00,0.00,VWS V14.01,2013-01-01 13:48:00,
2013-01-01 05:53:00,37.5,22.8,30.23,West,279,2.0,2.0,55,0.00,,CLR,0.00,0.00,VWS V14.01,2013-01-01 13:53:00,
2013-01-01 05:58:00,37.6,22.9,30.23,West,278,1.0,1.0,55,0.00,,CLR,0.00,0.00,VWS V14.01,2013-01-01 13:58:00,
2013-01-01 06:03:00,37.8,23.1,30.24,West,278,1.0,2.0,55,0.00,,CLR,0.00,0.00,VWS V14.01,2013-01-01 14:03:00,
2013-01-01 06:08:00,37.9,22.8,30.24,West,277,1.0,2.0,54,0.00,,CLR,0.00,0.00,VWS V14.01,2013-01-01 14:08:00,
2013-01-01 06:13:00,38.0,23.3,30.24,West,277,1.0,2.0,55,0.00,,CLR,0.00,0.00,VWS V14.01,2013-01-01 14:13:00,
2013-01-01 06:18:00,38.2,23.0,30.24,West,277,0.0,0.0,54,0.00,,CLR,0.00,0.00,VWS V14.01,2013-01-01 14:18:00,
2013-01-01 06:24:00,38.2,23.0,30.24,West,278,0.0,0.0,54,0.00,,CLR,0.00,0.00,VWS V14.01,2013-01-01 14:24:00,
2013-01-01 06:29:00,38.2,23.0,30.24,West,277,0.0,0.0,54,0.00,,CLR,0.00,0.00,VWS V14.01,2013-01-01 14:29:00,
2013-01-01 06:34:00,38.3,23.1,30.24,West,277,0.0,0.0,54,0.00,,CLR,0.00,0.00,VWS V14.01,2013-01-01 14:34:00,
2013-01-01 06:39:00,38.3,23.1,30.24,West,277,2.0,2.0,54,0.00,,CLR,0.00,0.00,VWS V14.01,2013-01-01 14:39:00,
2013-01-01 06:44:00,38.3,23.6,30.24,West,277,1.0,2.0,55,0.00,,CLR,0.00,0.00,VWS V14.01,2013-01-01 14:44:00,
2013-01-01 06:49:00,38.5,23.8,30.24,West,277,1.0,3.0,55,0.00,,CLR,0.00,0.00,VWS V14.01,2013-01-01 14:49:00,
2013-01-01 06:54:00,38.6,23.8,30.24,West,277,0.0,1.0,55,0.00,,CLR,0.00,0.00,VWS V14.01,2013-01-01 14:54:00,
2013-01-01 06:59:00,38.8,24.0,30.24,West,277,1.0,2.0,55,0.00,,CLR,0.00,0.00,VWS V14.01,2013-01-01 14:59:00,
2013-01-01 07:04:00,38.9,24.1,30.25,West,275,0.0,2.0,55,0.00,,BKN180,0.00,7.00,VWS V14.01,2013-01-01 15:04:00,
2013-01-01 07:09:00,39.1,24.3,30.25,West,273,1.0,1.0,55,0.00,,BKN180,0.00,12.00,VWS V14.01,2013-01-01 15:09:00,
2013-01-01 07:14:00,39.2,24.8,30.25,West,273,2.0,2.0,56,0.00,,BKN180,0.00,14.00,VWS V14.01,2013-01-01 15:14:00,
2013-01-01 07:19:00,39.3,24.5,30.25,West,273,1.0,2.0,55,0.00,,BKN180,0.00,18.00,VWS V14.01,2013-01-01 15:19:00,
2013-01-01 07:24:00,39.3,24.9,30.25,West,273,1.0,2.0,56,0.00,,BKN180,0.00,25.00,VWS V14.01,2013-01-01 15:24:00,
2013-01-01 07:29:00,39.3,24.9,30.25,West,273,1.0,2.0,56,0.00,,BKN180,0.00,30.00,VWS V14.01,2013-01-01 15:29:00,
2013-01-01 07:34:00,39.3,24.9,30.25,West,273,1.0,2.0,56,0.00,,BKN180,0.00,37.00,VWS V14.01,2013-01-01 15:34:00,
2013-01-01 07:39:00,39.5,25.1,30.25,West,273,2.0,2.0,56,0.00,,BKN180,0.00,42.00,VWS V14.01,2013-01-01 15:39:00,
2013-01-01 07:44:00,39.5,25.1,30.25,West,273,1.0,2.0,56,0.00,,BKN180,0.00,44.00,VWS V14.01,2013-01-01 15:44:00,
2013-01-01 07:49:00,39.6,24.8,30.25,West,273,0.0,1.0,55,0.00,,BKN180,0.00,46.00,VWS V14.01,2013-01-01 15:49:00,
2013-01-01 07:54:00,39.8,25.4,30.25,West,273,1.0,3.0,56,0.00,,BKN180,0.00,51.00,VWS V14.01,2013-01-01 15:54:00,
2013-01-01 07:59:00,39.9,25.1,30.25,West,273,0.0,0.0,55,0.00,,BKN180,0.00,56.00,VWS V14.01,2013-01-01 15:59:00,
2013-01-01 08:04:00,40.1,25.2,30.25,West,273,0.0,0.0,55,0.00,,BKN150,0.00,63.00,VWS V14.01,2013-01-01 16:04:00,
2013-01-01 08:09:00,40.3,25.4,30.25,West,273,0.0,0.0,55,0.00,,BKN150,0.00,69.00,VWS V14.01,2013-01-01 16:09:00,
2013-01-01 08:14:00,40.5,25.6,30.25,West,273,0.0,0.0,55,0.00,,BKN150,0.00,70.00,VWS V14.01,2013-01-01 16:14:00,
2013-01-01 08:19:00,40.6,25.7,30.26,West,273,0.0,0.0,55,0.00,,BKN150,0.00,74.00,VWS V14.01,2013-01-01 16:19:00,
2013-01-01 08:24:00,40.8,25.5,30.26,West,273,0.0,0.0,54,0.00,,BKN150,0.00,83.00,VWS V14.01,2013-01-01 16:24:00,
2013-01-01 08:29:00,41.1,25.7,30.26,West,273,1.0,2.0,54,0.00,,BKN150,0.00,98.00,VWS V14.01,2013-01-01 16:29:00,
2013-01-01 08:34:00,41.2,26.3,30.26,West,277,2.0,3.0,55,0.00,,BKN150,0.00,121.00,VWS V14.01,2013-01-01 16:34:00,
2013-01-01 08:39:00,42.1,26.2,30.26,West,280,1.0,3.0,53,0.00,,BKN150,0.00,230.00,VWS V14.01,2013-01-01 16:39:00,
2013-01-01 08:44:00,43.1,25.7,30.26,West,281,2.0,3.0,50,0.00,,BKN150,0.00,332.00,VWS V14.01,2013-01-01 16:44:00,
2013-01-01 08:49:00,44.6,26.1,30.27,West,281,0.0,0.0,48,0.00,,BKN150,0.00,466.00,VWS V14.01,2013-01-01 16:49:00,
2013-01-01 08:54:00,45.7,25.6,30.27,West,281,0.0,0.0,45,0.00,,BKN150,0.00,366.00,VWS V14.01,2013-01-01 16:54:00,
2013-01-01 08:59:00,46.5,24.7,30.27,West,281,0.0,0.0,42,0.00,,BKN150,0.00,359.00,VWS V14.01,2013-01-01 16:59:00,
2013-01-01 09:04:00,47.6,25.7,30.28,West,281,0.0,0.0,42,0.00,,CLR,0.00,378.00,VWS V14.01,2013-01-01 17:04:00,
2013-01-01 09:09:00,48.5,25.3,30.28,West,281,0.0,0.0,40,0.00,,CLR,0.00,179.00,VWS V14.01,2013-01-01 17:09:00,
2013-01-01 09:14:00,48.6,25.4,30.28,West,281,0.0,0.0,40,0.00,,CLR,0.00,144.00,VWS V14.01,2013-01-01 17:14:00,
2013-01-01 09:20:00,48.8,25.0,30.28,West,281,0.0,0.0,39,0.00,,CLR,0.00,160.00,VWS V14.01,2013-01-01 17:20:00,
2013-01-01 09:25:00,49.1,26.4,30.28,West,281,0.0,0.0,41,0.00,,CLR,0.00,176.00,VWS V14.01,2013-01-01 17:25:00,
2013-01-01 09:30:00,49.4,25.5,30.28,West,281,0.0,0.0,39,0.00,,CLR,0.00,176.00,VWS V14.01,2013-01-01 17:30:00,
2013-01-01 09:35:00,49.9,27.1,30.28,West,281,0.0,0.0,41,0.00,,CLR,0.00,179.00,VWS V14.01,2013-01-01 17:35:00,
2013-01-01 09:40:00,50.1,29.6,30.28,West,281,0.0,1.0,45,0.00,,CLR,0.00,213.00,VWS V14.01,2013-01-01 17:40:00,
2013-01-01 09:45:00,50.8,26.8,30.28,West,273,0.0,2.0,39,0.00,,CLR,0.00,172.00,VWS V14.01,2013-01-01 17:45:00,
2013-01-01 09:50:00,51.0,26.9,30.28,West,273,0.0,1.0,39,0.00,,CLR,0.00,195.00,VWS V14.01,2013-01-01 17:50:00,
2013-01-01 09:55:00,52.2,28.0,30.28,West,273,0.0,3.0,39,0.00,,CLR,0.00,554.00,VWS V14.01,2013-01-01 17:55:00,
2013-01-01 10:00:00,52.5,26.3,30.28,West,273,0.0,1.0,36,0.00,,CLR,0.00,524.00,VWS V14.01,2013-01-01 18:00:00,
2013-01-01 10:05:00,53.1,28.8,30.28,West,273,0.0,0.0,39,0.00,,BKN140,0.00,559.00,VWS V14.01,2013-01-01 18:05:00,
2013-01-01 10:10:00,52.9,23.9,30.28,West,273,0.0,0.0,32,0.00,,BKN140,0.00,431.00,VWS V14.01,2013-01-01 18:10:00,
2013-01-01 10:15:00,53.3,25.7,30.28,West,273,0.0,0.0,34,0.00,,BKN140,0.00,640.00,VWS V14.01,2013-01-01 18:15:00,
2013-01-01 10:20:00,54.8,27.0,30.27,West,273,0.0,0.0,34,0.00,,BKN140,0.00,717.00,VWS V14.01,2013-01-01 18:20:00,
2013-01-01 10:25:00,55.0,24.2,30.27,West,273,0.0,0.0,30,0.00,,BKN140,0.00,768.00,VWS V14.01,2013-01-01 18:25:00,
2013-01-01 10:30:00,56.0,25.8,30.27,West,272,0.0,0.0,31,0.00,,BKN140,0.00,761.00,VWS V14.01,2013-01-01 18:30:00,
2013-01-01 10:35:00,56.0,25.8,30.27,West,269,1.0,1.0,31,0.00,,BKN140,0.00,656.00,VWS V14.01,2013-01-01 18:35:00,
2013-01-01 10:40:00,56.2,26.8,30.27,SSW,201,0.0,4.0,32,0.00,,BKN140,0.00,538.00,VWS V14.01,2013-01-01 18:40:00,
2013-01-01 10:45:00,55.7,24.0,30.27,SSW,201,0.0,2.0,29,0.00,,BKN140,0.00,350.00,VWS V14.01,2013-01-01 18:45:00,
2013-01-01 10:50:00,56.0,24.2,30.26,SSW,201,1.0,3.0,29,0.00,,BKN140,0.00,707.00,VWS V14.01,2013-01-01 18:50:00,
2013-01-01 10:55:00,56.6,25.5,30.26,SSW,201,3.0,3.0,30,0.00,,BKN140,0.00,373.00,VWS V14.01,2013-01-01 18:55:00,
2013-01-01 11:00:00,56.2,20.9,30.26,SSW,201,0.0,3.0,25,0.00,,BKN140,0.00,232.00,VWS V14.01,2013-01-01 19:00:00,
2013-01-01 11:05:00,55.7,22.3,30.26,SSW,201,2.0,3.0,27,0.00,,BKN200,0.00,229.00,VWS V14.01,2013-01-01 19:05:00,
2013-01-01 11:10:00,56.2,20.9,30.26,SSW,201,2.0,5.0,25,0.00,,BKN200,0.00,367.00,VWS V14.01,2013-01-01 19:10:00,
2013-01-01 11:15:00,56.7,21.3,30.26,SSW,201,0.0,4.0,25,0.00,,BKN200,0.00,468.00,VWS V14.01,2013-01-01 19:15:00,
2013-01-01 11:20:00,57.0,22.5,30.25,SSW,201,4.0,5.0,26,0.00,,BKN200,0.00,561.00,VWS V14.01,2013-01-01 19:20:00,
2013-01-01 11:26:00,57.2,22.6,30.25,South,181,1.0,6.0,26,0.00,,BKN200,0.00,726.00,VWS V14.01,2013-01-01 19:26:00,
2013-01-01 11:31:00,58.3,23.6,30.25,South,181,3.0,6.0,26,0.00,,BKN200,0.00,570.00,VWS V14.01,2013-01-01 19:31:00,
2013-01-01 11:36:00,57.5,22.9,30.23,South,181,0.0,3.0,26,0.00,,BKN200,0.00,345.00,VWS V14.01,2013-01-01 19:36:00,
2013-01-01 11:41:00,57.0,22.5,30.23,South,181,0.0,4.0,26,0.00,,BKN200,0.00,218.00,VWS V14.01,2013-01-01 19:41:00,
2013-01-01 11:46:00,56.6,23.0,30.23,South,181,0.0,2.0,27,0.00,,BKN200,0.00,295.00,VWS V14.01,2013-01-01 19:46:00,
2013-01-01 11:51:00,56.7,23.1,30.23,South,181,0.0,1.0,27,0.00,,BKN200,0.00,381.00,VWS V14.01,2013-01-01 19:51:00,
2013-01-01 11:56:00,57.6,23.0,30.23,South,181,3.0,4.0,26,0.00,,BKN200,0.00,629.00,VWS V14.01,2013-01-01 19:56:00,
2013-01-01 12:01:00,58.3,21.7,30.23,South,181,4.0,4.0,24,0.00,,BKN200,0.00,717.00,VWS V14.01,2013-01-01 20:01:00,
2013-01-01 12:06:00,57.8,22.2,30.22,South,181,0.0,3.0,25,0.00,,BKN200,0.00,524.00,VWS V14.01,2013-01-01 20:06:00,
2013-01-01 12:11:00,58.0,23.3,30.22,South,181,0.0,1.0,26,0.00,,BKN200,0.00,684.00,VWS V14.01,2013-01-01 20:11:00,
2013-01-01 12:16:00,58.4,21.8,30.22,South,181,0.0,3.0,24,0.00,,BKN200,0.00,466.00,VWS V14.01,2013-01-01 20:16:00,
2013-01-01 12:21:00,58.0,21.4,30.22,South,181,1.0,6.0,24,0.00,,BKN200,0.00,251.00,VWS V14.01,2013-01-01 20:21:00,
2013-01-01 12:26:00,57.5,22.9,30.22,South,181,0.0,6.0,26,0.00,,BKN200,0.00,517.00,VWS V14.01,2013-01-01 20:26:00,
2013-01-01 12:31:00,57.6,23.0,30.22,South,181,2.0,5.0,26,0.00,,BKN200,0.00,647.00,VWS V14.01,2013-01-01 20:31:00,
2013-01-01 12:36:00,58.1,22.5,30.21,South,181,4.0,5.0,25,0.00,,BKN200,0.00,626.00,VWS V14.01,2013-01-01 20:36:00,
2013-01-01 12:41:00,58.9,24.1,30.21,South,182,2.0,6.0,26,0.00,,BKN200,0.00,626.00,VWS V14.01,2013-01-01 20:41:00,
2013-01-01 12:46:00,59.3,23.5,30.21,South,180,6.0,7.0,25,0.00,,BKN200,0.00,645.00,VWS V14.01,2013-01-01 20:46:00,
2013-01-01 12:51:00,58.7,23.0,30.21,South,180,3.0,5.0,25,0.00,,BKN200,0.00,253.00,VWS V14.01,2013-01-01 20:51:00,
2013-01-01 12:56:00,58.6,21.9,30.21,South,180,3.0,4.0,24,0.00,,BKN200,0.00,239.00,VWS V14.01,2013-01-01 20:56:00,
2013-01-01 13:01:00,58.4,21.8,30.21,South,180,2.0,5.0,24,0.00,,BKN200,0.00,329.00,VWS V14.01,2013-01-01 21:01:00,
2013-01-01 13:07:00,58.4,21.8,30.21,South,180,4.0,5.0,24,0.00,,BKN200,0.00,489.00,VWS V14.01,2013-01-01 21:07:00,
2013-01-01 13:12:00,58.1,22.5,30.21,South,180,3.0,4.0,25,0.00,,BKN200,0.00,265.00,VWS V14.01,2013-01-01 21:12:00,
2013-01-01 13:17:00,58.3,21.7,30.20,South,180,3.0,5.0,24,0.00,,BKN200,0.00,260.00,VWS V14.01,2013-01-01 21:17:00,
2013-01-01 13:22:00,58.3,21.7,30.20,South,175,0.0,8.0,24,0.00,,BKN200,0.00,271.00,VWS V14.01,2013-01-01 21:22:00,
2013-01-01 13:27:00,58.4,21.8,30.20,South,175,3.0,5.0,24,0.00,,BKN200,0.00,512.00,VWS V14.01,2013-01-01 21:27:00,
2013-01-01 13:32:00,58.3,20.7,30.20,South,175,2.0,4.0,23,0.00,,BKN200,0.00,260.00,VWS V14.01,2013-01-01 21:32:00,
2013-01-01 13:37:00,58.4,21.8,30.20,South,175,0.0,4.0,24,0.00,,BKN200,0.00,232.00,VWS V14.01,2013-01-01 21:37:00,
2013-01-01 13:42:00,57.8,19.2,30.20,South,175,0.0,0.0,22,0.00,,BKN200,0.00,221.00,VWS V14.01,2013-01-01 21:42:00,
2013-01-01 13:47:00,58.0,19.4,30.20,South,175,0.0,3.0,22,0.00,,BKN200,0.00,229.00,VWS V14.01,2013-01-01 21:47:00,
2013-01-01 13:52:00,58.0,19.4,30.20,South,175,2.0,3.0,22,0.00,,BKN200,0.00,237.00,VWS V14.01,2013-01-01 21:52:00,
2013-01-01 13:57:00,58.3,19.6,30.20,South,175,1.0,2.0,22,0.00,,BKN200,0.00,279.00,VWS V14.01,2013-01-01 21:57:00,
2013-01-01 14:02:00,58.0,19.4,30.20,South,175,0.0,0.0,22,0.00,,BKN200,0.00,281.00,VWS V14.01,2013-01-01 22:02:00,
2013-01-01 14:07:00,58.0,19.4,30.20,South,175,0.0,1.0,22,0.00,,BKN200,0.00,346.00,VWS V14.01,2013-01-01 22:07:00,
2013-01-01 14:12:00,58.4,19.7,30.20,South,175,2.0,3.0,22,0.00,,BKN200,0.00,536.00,VWS V14.01,2013-01-01 22:12:00,
2013-01-01 14:17:00,58.6,18.8,30.20,South,175,2.0,3.0,21,0.00,,BKN200,0.00,200.00,VWS V14.01,2013-01-01 22:17:00,
2013-01-01 14:22:00,58.6,18.8,30.20,South,175,1.0,3.0,21,0.00,,BKN200,0.00,183.00,VWS V14.01,2013-01-01 22:22:00,
2013-01-01 14:27:00,58.6,17.7,30.20,South,175,0.0,5.0,20,0.00,,BKN200,0.00,176.00,VWS V14.01,2013-01-01 22:27:00,
2013-01-01 14:32:00,58.3,18.6,30.19,South,175,0.0,3.0,21,0.00,,BKN200,0.00,179.00,VWS V14.01,2013-01-01 22:32:00,
2013-01-01 14:37:00,58.3,18.6,30.19,South,175,3.0,4.0,21,0.00,,BKN200,0.00,172.00,VWS V14.01,2013-01-01 22:37:00,
2013-01-01 14:43:00,58.6,19.9,30.19,South,175,3.0,4.0,22,0.00,,BKN200,0.00,169.00,VWS V14.01,2013-01-01 22:43:00,
2013-01-01 14:48:00,58.6,18.8,30.19,South,175,2.0,4.0,21,0.00,,BKN200,0.00,162.00,VWS V14.01,2013-01-01 22:48:00,
2013-01-01 14:53:00,58.4,18.6,30.19,South,175,0.0,3.0,21,0.00,,BKN200,0.00,162.00,VWS V14.01,2013-01-01 22:53:00,
2013-01-01 14:58:00,58.3,18.6,30.19,South,175,0.0,3.0,21,0.00,,BKN200,0.00,195.00,VWS V14.01,2013-01-01 22:58:00,
2013-01-01 15:03:00,58.3,18.6,30.19,South,175,0.0,2.0,21,0.00,,SCT110,0.00,188.00,VWS V14.01,2013-01-01 23:03:00,
2013-01-01 15:08:00,58.1,18.4,30.19,South,175,0.0,2.0,21,0.00,,SCT110,0.00,188.00,VWS V14.01,2013-01-01 23:08:00,
2013-01-01 15:13:00,58.4,19.7,30.19,South,175,1.0,2.0,22,0.00,,SCT110,0.00,244.00,VWS V14.01,2013-01-01 23:13:00,
2013-01-01 15:18:00,59.0,18.0,30.19,South,175,0.0,0.0,20,0.00,,SCT110,0.00,371.00,VWS V14.01,2013-01-01 23:18:00,
2013-01-01 15:23:00,59.0,18.0,30.19,South,175,0.0,0.0,20,0.00,,SCT110,0.00,341.00,VWS V14.01,2013-01-01 23:23:00,
2013-01-01 15:28:00,59.0,18.0,30.19,South,176,0.0,0.0,20,0.00,,SCT110,0.00,288.00,VWS V14.01,2013-01-01 23:28:00,
2013-01-01 15:33:00,58.7,18.9,30.19,South,179,0.0,0.0,21,0.00,,SCT110,0.00,237.00,VWS V14.01,2013-01-01 23:33:00,
2013-01-01 15:38:00,58.7,17.8,30.19,South,179,0.0,0.0,20,0.00,,SCT110,0.00,197.00,VWS V14.01,2013-01-01 23:38:00,
2013-01-01 15:43:00,58.7,17.8,30.19,South,179,0.0,0.0,20,0.00,,SCT110,0.00,100.00,VWS V14.01,2013-01-01 23:43:00,
2013-01-01 15:48:00,58.6,16.5,30.19,South,179,0.0,0.0,19,0.00,,SCT110,0.00,53.00,VWS V14.01,2013-01-01 23:48:00,
2013-01-01 15:53:00,58.4,17.5,30.19,South,179,0.0,0.0,20,0.00,,SCT110,0.00,67.00,VWS V14.01,2013-01-01 23:53:00,
2013-01-01 15:58:00,58.3,17.4,30.19,South,179,0.0,0.0,20,0.00,,SCT110,0.00,32.00,VWS V14.01,2013-01-01 23:58:00,
2013-01-01 16:03:00,58.4,17.5,30.19,South,179,0.0,0.0,20,0.00,,SCT200,0.00,26.00,VWS V14.01,2013-01-02 00:03:00,
2013-01-01 16:08:00,58.4,19.7,30.19,South,179,0.0,0.0,22,0.00,,SCT200,0.00,25.00,VWS V14.01,2013-01-02 00:08:00,
2013-01-01 16:13:00,58.3,18.6,30.19,South,179,0.0,0.0,21,0.00,,SCT200,0.00,21.00,VWS V14.01,2013-01-02 00:13:00,
2013-01-01 16:19:00,58.1,18.4,30.18,South,179,0.0,0.0,21,0.00,,SCT200,0.00,19.00,VWS V14.01,2013-01-02 00:19:00,
2013-01-01 16:24:00,58.0,19.4,30.18,South,179,0.0,0.0,22,0.00,,SCT200,0.00,18.00,VWS V14.01,2013-01-02 00:24:00,
2013-01-01 16:29:00,57.8,20.3,30.18,South,179,0.0,0.0,23,0.00,,SCT200,0.00,12.00,VWS V14.01,2013-01-02 00:29:00,
2013-01-01 16:34:00,57.5,20.0,30.19,South,179,0.0,0.0,23,0.00,,SCT200,0.00,12.00,VWS V14.01,2013-01-02 00:34:00,
2013-01-01 16:39:00,57.2,19.8,30.19,South,179,0.0,0.0,23,0.00,,SCT200,0.00,9.00,VWS V14.01,2013-01-02 00:39:00,
2013-01-01 16:44:00,56.9,19.5,30.19,South,179,0.0,0.0,23,0.00,,SCT200,0.00,5.00,VWS V14.01,2013-01-02 00:44:00,
2013-01-01 16:49:00,56.7,20.3,30.19,South,179,0.0,0.0,24,0.00,,SCT200,0.00,0.00,VWS V14.01,2013-01-02 00:49:00,
2013-01-01 16:54:00,56.5,20.2,30.19,South,179,0.0,2.0,24,0.00,,SCT200,0.00,0.00,VWS V14.01,2013-01-02 00:54:00,
2013-01-01 16:59:00,56.0,18.8,30.19,South,179,1.0,2.0,23,0.00,,SCT200,0.00,0.00,VWS V14.01,2013-01-02 00:59:00,
2013-01-01 17:04:00,55.7,19.5,30.19,South,179,0.0,1.0,24,0.00,,OVC110,0.00,0.00,VWS V14.01,2013-01-02 01:04:00,
2013-01-01 17:09:00,55.6,19.4,30.19,South,179,0.0,1.0,24,0.00,,OVC110,0.00,0.00,VWS V14.01,2013-01-02 01:09:00,
2013-01-01 17:14:00,55.3,19.1,30.19,South,179,0.0,1.0,24,0.00,,OVC110,0.00,0.00,VWS V14.01,2013-01-02 01:14:00,
2013-01-01 17:19:00,55.1,19.0,30.19,South,179,0.0,0.0,24,0.00,,OVC110,0.00,0.00,VWS V14.01,2013-01-02 01:19:00,
2013-01-01 17:24:00,54.8,18.7,30.19,South,179,1.0,2.0,24,0.00,,OVC110,0.00,0.00,VWS V14.01,2013-01-02 01:24:00,
2013-01-01 17:29:00,54.7,18.6,30.19,South,179,0.0,1.0,24,0.00,,OVC110,0.00,0.00,VWS V14.01,2013-01-02 01:29:00,
2013-01-01 17:34:00,54.5,17.5,30.19,South,179,0.0,0.0,23,0.00,,OVC110,0.00,0.00,VWS V14.01,2013-01-02 01:34:00,
2013-01-01 17:39:00,54.4,18.4,30.19,South,179,0.0,0.0,24,0.00,,OVC110,0.00,0.00,VWS V14.01,2013-01-02 01:39:00,
2013-01-01 17:44:00,54.2,18.2,30.19,South,179,0.0,0.0,24,0.00,,OVC110,0.00,0.00,VWS V14.01,2013-01-02 01:44:00,
2013-01-01 17:49:00,54.1,18.1,30.19,South,179,1.0,4.0,24,0.00,,OVC110,0.00,0.00,VWS V14.01,2013-01-02 01:49:00,
2013-01-01 17:54:00,54.1,18.1,30.19,WNW,294,3.0,4.0,24,0.00,,OVC110,0.00,0.00,VWS V14.01,2013-01-02 01:54:00,
2013-01-01 17:59:00,53.9,17.0,30.19,WNW,294,0.0,3.0,23,0.00,,OVC110,0.00,0.00,VWS V14.01,2013-01-02 01:59:00,
2013-01-01 18:04:00,53.9,18.0,30.19,WNW,295,3.0,5.0,24,0.00,,CLR,0.00,0.00,VWS V14.01,2013-01-02 02:04:00,
2013-01-01 18:09:00,53.9,17.0,30.19,NW,312,5.0,6.0,23,0.00,,CLR,0.00,0.00,VWS V14.01,2013-01-02 02:09:00,
2013-01-01 18:14:00,54.1,15.1,30.19,NW,323,1.0,5.0,21,0.00,,CLR,0.00,0.00,VWS V14.01,2013-01-02 02:14:00,
2013-01-01 18:19:00,54.2,15.1,30.20,NNW,348,1.0,4.0,21,0.00,,CLR,0.00,0.00,VWS V14.01,2013-01-02 02:19:00,
2013-01-01 18:24:00,54.4,15.3,30.20,NNW,348,3.0,3.0,21,0.00,,CLR,0.00,0.00,VWS V14.01,2013-01-02 02:24:00,
2013-01-01 18:29:00,54.4,15.3,30.20,NNW,348,3.0,4.0,21,0.00,,CLR,0.00,0.00,VWS V14.01,2013-01-02 02:29:00,
2013-01-01 18:34:00,54.4,15.3,30.20,NNW,348,2.0,5.0,21,0.00,,CLR,0.00,0.00,VWS V14.01,2013-01-02 02:34:00,
2013-01-01 18:39:00,54.4,15.3,30.20,NNW,348,2.0,3.0,21,0.00,,CLR,0.00,0.00,VWS V14.01,2013-01-02 02:39:00,
2013-01-01 18:44:00,54.4,14.2,30.20,NNW,348,3.0,3.0,20,0.00,,CLR,0.00,0.00,VWS V14.01,2013-01-02 02:44:00,
2013-01-01 18:50:00,54.2,15.1,30.21,NNW,348,0.0,3.0,21,0.00,,CLR,0.00,0.00,VWS V14.01,2013-01-02 02:50:00,
2013-01-01 18:55:00,54.1,15.1,30.21,NNW,348,3.0,3.0,21,0.00,,CLR,0.00,0.00,VWS V14.01,2013-01-02 02:55:00,
2013-01-01 19:00:00,54.1,15.1,30.21,NNW,347,3.0,3.0,21,0.00,,CLR,0.00,0.00,VWS V14.01,2013-01-02 03:00:00,
2013-01-01 19:05:00,53.8,14.8,30.21,NNW,345,3.0,4.0,21,0.00,,FEW120,0.00,0.00,VWS V14.01,2013-01-02 03:05:00,
2013-01-01 19:10:00,53.8,14.8,30.21,NNW,346,4.0,4.0,21,0.00,,FEW120,0.00,0.00,VWS V14.01,2013-01-02 03:10:00,
2013-01-01 19:15:00,53.6,15.7,30.21,NNW,346,1.0,3.0,22,0.00,,FEW120,0.00,0.00,VWS V14.01,2013-01-02 03:15:00,
2013-01-01 19:20:00,53.5,15.6,30.22,NNW,346,2.0,3.0,22,0.00,,FEW120,0.00,0.00,VWS V14.01,2013-01-02 03:20:00,
2013-01-01 19:25:00,53.3,15.4,30.22,NNW,346,0.0,0.0,22,0.00,,FEW120,0.00,0.00,VWS V14.01,2013-01-02 03:25:00,
2013-01-01 19:30:00,53.2,18.3,30.22,NNW,346,0.0,3.0,25,0.00,,FEW120,0.00,0.00,VWS V14.01,2013-01-02 03:30:00,
2013-01-01 19:35:00,52.9,19.0,30.22,NNW,340,0.0,1.0,26,0.00,,FEW120,0.00,0.00,VWS V14.01,2013-01-02 03:35:00,
2013-01-01 19:40:00,52.8,18.9,30.22,NNW,340,0.0,2.0,26,0.00,,FEW120,0.00,0.00,VWS V14.01,2013-01-02 03:40:00,
2013-01-01 19:45:00,52.6,20.4,30.22,NNW,340,0.0,1.0,28,0.00,,FEW120,0.00,0.00,VWS V14.01,2013-01-02 03:45:00,
2013-01-01 19:50:00,52.5,20.4,30.23,NNW,340,0.0,1.0,28,0.00,,FEW120,0.00,0.00,VWS V14.01,2013-01-02 03:50:00,
2013-01-01 19:55:00,52.2,20.9,30.23,NNW,340,0.0,0.0,29,0.00,,FEW120,0.00,0.00,VWS V14.01,2013-01-02 03:55:00,
2013-01-01 20:00:00,52.0,19.9,30.23,NNW,340,2.0,2.0,28,0.00,,FEW120,0.00,0.00,VWS V14.01,2013-01-02 04:00:00,
2013-01-01 20:05:00,51.9,23.0,30.23,NNW,340,1.0,2.0,32,0.00,,SCT110,0.00,0.00,VWS V14.01,2013-01-02 04:05:00,
2013-01-01 20:10:00,51.6,22.7,30.23,NNW,340,1.0,2.0,32,0.00,,SCT110,0.00,0.00,VWS V14.01,2013-01-02 04:10:00,
2013-01-01 20:15:00,51.3,20.9,30.23,NNW,340,2.0,2.0,30,0.00,,SCT110,0.00,0.00,VWS V14.01,2013-01-02 04:15:00,
2013-01-01 20:20:00,51.0,19.9,30.23,NNW,340,1.0,2.0,29,0.00,,SCT110,0.00,0.00,VWS V14.01,2013-01-02 04:20:00,
2013-01-01 20:25:00,50.7,18.8,30.23,NNW,340,3.0,4.0,28,0.00,,SCT110,0.00,0.00,VWS V14.01,2013-01-02 04:25:00,
2013-01-01 20:30:00,50.2,16.6,30.23,NNW,338,0.0,3.0,26,0.00,,SCT110,0.00,0.00,VWS V14.01,2013-01-02 04:30:00,
2013-01-01 20:35:00,49.9,16.4,30.23,NNW,338,2.0,3.0,26,0.00,,SCT110,0.00,0.00,VWS V14.01,2013-01-02 04:35:00,
2013-01-01 20:40:00,49.8,16.3,30.23,NNW,338,0.0,0.0,26,0.00,,SCT110,0.00,0.00,VWS V14.01,2013-01-02 04:40:00,
2013-01-01 20:45:00,49.5,16.0,30.23,NNW,338,0.0,0.0,26,0.00,,SCT110,0.00,0.00,VWS V14.01,2013-01-02 04:45:00,
2013-01-01 20:50:00,49.4,16.8,30.23,NNW,338,2.0,3.0,27,0.00,,SCT110,0.00,0.00,VWS V14.01,2013-01-02 04:50:00,
2013-01-01 20:55:00,49.1,17.4,30.23,NNW,338,0.0,2.0,28,0.00,,SCT110,0.00,0.00,VWS V14.01,2013-01-02 04:55:00,
2013-01-01 21:00:00,48.9,17.2,30.23,NNW,338,0.0,0.0,28,0.00,,SCT110,0.00,0.00,VWS V14.01,2013-01-02 05:00:00,
2013-01-01 21:01:00,48.9,17.2,30.23,NNW,338,0.0,0.0,28,0.00,,CLR,0.00,0.00,VWS V14.01,2013-01-02 05:01:00,
2013-01-01 21:02:00,48.9,17.2,30.23,NNW,338,0.0,0.0,28,0.00,,CLR,0.00,0.00,VWS V14.01,2013-01-02 05:02:00,
2013-01-01 21:03:00,48.8,17.2,30.23,NNW,338,0.0,0.0,28,0.00,,CLR,0.00,0.00,VWS V14.01,2013-01-02 05:03:00,
2013-01-01 21:08:00,48.6,17.0,30.23,NNW,338,1.0,2.0,28,0.00,,CLR,0.00,0.00,VWS V14.01,2013-01-02 05:08:00,
2013-01-01 21:13:00,48.5,16.9,30.23,WSW,248,0.0,1.0,28,0.00,,CLR,0.00,0.00,VWS V14.01,2013-01-02 05:13:00,
2013-01-01 21:18:00,48.3,17.5,30.23,WSW,248,0.0,1.0,29,0.00,,CLR,0.00,0.00,VWS V14.01,2013-01-02 05:18:00,
2013-01-01 21:23:00,48.2,17.5,30.23,WSW,248,2.0,2.0,29,0.00,,CLR,0.00,0.00,VWS V14.01,2013-01-02 05:23:00,
2013-01-01 21:28:00,47.9,17.2,30.23,WSW,248,1.0,2.0,29,0.00,,CLR,0.00,0.00,VWS V14.01,2013-01-02 05:28:00,
2013-01-01 21:33:00,47.7,17.0,30.23,WSW,248,0.0,2.0,29,0.00,,CLR,0.00,0.00,VWS V14.01,2013-01-02 05:33:00,
2013-01-01 21:38:00,47.4,16.8,30.23,WSW,248,2.0,2.0,29,0.00,,CLR,0.00,0.00,VWS V14.01,2013-01-02 05:38:00,
2013-01-01 21:43:00,47.3,15.9,30.23,WNW,284,3.0,3.0,28,0.00,,CLR,0.00,0.00,VWS V14.01,2013-01-02 05:43:00,
2013-01-01 21:48:00,47.0,15.6,30.23,WNW,293,3.0,3.0,28,0.00,,CLR,0.00,0.00,VWS V14.01,2013-01-02 05:48:00,
2013-01-01 21:53:00,46.7,16.1,30.23,WNW,290,1.0,2.0,29,0.00,,CLR,0.00,0.00,VWS V14.01,2013-01-02 05:53:00,
2013-01-01 21:58:00,46.4,16.7,30.23,WNW,290,1.0,2.0,30,0.00,,CLR,0.00,0.00,VWS V14.01,2013-01-02 05:58:00,
2013-01-01 22:03:00,46.1,16.4,30.23,NNW,337,4.0,4.0,30,0.00,,CLR,0.00,0.00,VWS V14.01,2013-01-02 06:03:00,
2013-01-01 22:08:00,46.0,17.1,30.23,WNW,286,3.0,4.0,31,0.00,,CLR,0.00,0.00,VWS V14.01,2013-01-02 06:08:00,
2013-01-01 22:14:00,45.8,15.4,30.23,WNW,290,0.0,0.0,29,0.00,,CLR,0.00,0.00,VWS V14.01,2013-01-02 06:14:00,
2013-01-01 22:19:00,45.7,14.5,30.23,WNW,292,3.0,3.0,28,0.00,,CLR,0.00,0.00,VWS V14.01,2013-01-02 06:19:00,
2013-01-01 22:24:00,45.5,14.3,30.23,WNW,288,2.0,2.0,28,0.00,,CLR,0.00,0.00,VWS V14.01,2013-01-02 06:24:00,
2013-01-01 22:29:00,45.5,13.5,30.23,NNW,342,2.0,2.0,27,0.00,,CLR,0.00,0.00,VWS V14.01,2013-01-02 06:29:00,
2013-01-01 22:34:00,45.7,14.5,30.23,West,259,5.0,5.0,28,0.00,,CLR,0.00,0.00,VWS V14.01,2013-01-02 06:34:00,
2013-01-01 22:39:00,45.7,14.5,30.23,WSW,240,1.0,3.0,28,0.00,,CLR,0.00,0.00,VWS V14.01,2013-01-02 06:39:00,
2013-01-01 22:44:00,45.8,14.6,30.23,WSW,240,3.0,3.0,28,0.00,,CLR,0.00,0.00,VWS V14.01,2013-01-02 06:44:00,
2013-01-01 22:49:00,45.7,14.5,30.23,WSW,240,2.0,3.0,28,0.00,,CLR,0.00,0.00,VWS V14.01,2013-01-02 06:49:00,
2013-01-01 22:54:00,45.7,13.6,30.23,WSW,240,1.0,2.0,27,0.00,,CLR,0.00,0.00,VWS V14.01,2013-01-02 06:54:00,
2013-01-01 22:59:00,45.5,14.3,30.23,NW,309,0.0,2.0,28,0.00,,CLR,0.00,0.00,VWS V14.01,2013-01-02 06:59:00,
2013-01-01 23:04:00,45.5,14.3,30.24,NW,309,2.0,3.0,28,0.00,,CLR,0.00,0.00,VWS V14.01,2013-01-02 07:04:00,
2013-01-01 23:09:00,45.2,14.1,30.24,NNW,340,3.0,3.0,28,0.00,,CLR,0.00,0.00,VWS V14.01,2013-01-02 07:09:00,
2013-01-01 23:14:00,45.1,14.0,30.24,NNW,337,1.0,3.0,28,0.00,,CLR,0.00,0.00,VWS V14.01,2013-01-02 07:14:00,
2013-01-01 23:19:00,44.9,14.6,30.23,NNW,337,0.0,3.0,29,0.00,,CLR,0.00,0.00,VWS V14.01,2013-01-02 07:19:00,
2013-01-01 23:24:00,44.8,15.3,30.23,NNW,336,2.0,3.0,30,0.00,,CLR,0.00,0.00,VWS V14.01,2013-01-02 07:24:00,
2013-01-01 23:29:00,44.5,15.0,30.23,NW,317,3.0,3.0,30,0.00,,CLR,0.00,0.00,VWS V14.01,2013-01-02 07:29:00,
2013-01-01 23:34:00,44.1,15.4,30.23,WNW,290,2.0,4.0,31,0.00,,CLR,0.00,0.00,VWS V14.01,2013-01-02 07:34:00,
2013-01-01 23:39:00,43.8,15.9,30.23,West,273,3.0,3.0,32,0.00,,CLR,0.00,0.00,VWS V14.01,2013-01-02 07:39:00,
2013-01-01 23:44:00,43.3,16.1,30.23,West,271,2.0,3.0,33,0.00,,CLR,0.00,0.00,VWS V14.01,2013-01-02 07:44:00,
2013-01-01 23:49:00,43.1,16.0,30.22,West,271,0.0,1.0,33,0.00,,CLR,0.00,0.00,VWS V14.01,2013-01-02 07:49:00,
2013-01-01 23:55:00,42.8,16.4,30.22,West,271,2.0,3.0,34,0.00,,CLR,0.00,0.00,VWS V14.01,2013-01-02 07:55:00,